Starlink 5984

operational
NORAD ID: 56329 Int'l Des: 2023-058 Owner: SPXS Country: US Constellation: starlink
LEOCIRCULARRETROGRADESSO

关于 Starlink 5984

正在加载描述...

实时位置

正在加载3D地球...

即将过境

高度历史

Altitude vs Time

uPlot chart will show altitude changes over time

两行轨道根数

1 56329U 23058N 26036.42607948 .00001469 00000-0 10598-3 0 9996
2 56329 97.6051 39.4372 0001892 86.7623 273.3821 15.05649765153345
Epoch: Feb 5, 2026 • Age: 10 hours

当前状态

高度 559.6 km
速度 7.59 km/s
星下点 65.07°N, 155.96°E
发射日期 Apr 27, 2023
运行时间 2.7 years
类型 internet

技术详情

分类 Payload
质量 300.00 kg
干质量 260.00 kg
总质量 300.00 kg
长度 0.20 m
直径 2.80 m
跨度 9.00 m
形状 Box + pan
制造商 SPXS
平台类型 Starlink
阶段状态 In Orbit
所有者/国家 SPXS/US

大型星座

Loading constellations...